When you browse on this site, cookies collect data to enhance your experience and personalize the content and advertising you see.
Visit our Privacy Policy to learn more. By continuing to use the site, you agree to this use of cookies and data.

Hourly Weather Giumri

Today, 18 September, Friday

Time Temperature Precipitation Wind Pressure Humidity
00:00 +15°C° 0 mm 1 mps 637 mmHg 80%
01:00 +14°C° 0 mm 1 mps 636 mmHg 81%
02:00 +14°C° 0 mm 1 mps 636 mmHg 82%
03:00 +14°C° 0 mm 1 mps 636 mmHg 84%
04:00 +14°C° 0 mm 1 mps 636 mmHg 83%
05:00 +14°C° 0 mm 1 mps 636 mmHg 83%
06:00 +13°C° 0 mm 0 mps 635 mmHg 82%
07:00 +16°C° 0 mm 1 mps 636 mmHg 72%
08:00 +19°C° 0 mm 1 mps 636 mmHg 62%
09:00 +21°C° 0 mm 2 mps 637 mmHg 53%
10:00 +24°C° 0 mm 2 mps 638 mmHg 46%
11:00 +25°C° 0 mm 2 mps 638 mmHg 39%
12:00 +27°C° 0 mm 3 mps 638 mmHg 32%
13:00 +28°C° 0 mm 2 mps 638 mmHg 29%
14:00 +28°C° 0 mm 2 mps 638 mmHg 26%
15:00 +29°C° 0 mm 2 mps 637 mmHg 23%
16:00 +27°C° 0 mm 3 mps 637 mmHg 33%
17:00 +25°C° 0 mm 3 mps 636 mmHg 42%
18:00 +21°C° 0 mm 4 mps 636 mmHg 52%
19:00 +20°C° 0 mm 3 mps 635 mmHg 57%
20:00 +19°C° 0 mm 3 mps 635 mmHg 62%
21:00 +17°C° 0 mm 2 mps 635 mmHg 67%
22:00 +17°C° 0 mm 2 mps 635 mmHg 66%
23:00 +17°C° 0 mm 2 mps 635 mmHg 65%

Tomorrow, 19 September, Saturday

Time Temperature Precipitation Wind Pressure Humidity
00:00 +16°C° 0 mm 2 mps 635 mmHg 64%
01:00 +16°C° 0 mm 1 mps 635 mmHg 64%
02:00 +15°C° 0 mm 1 mps 634 mmHg 64%
03:00 +15°C° 0 mm 1 mps 634 mmHg 63%
04:00 +15°C° 0 mm 1 mps 634 mmHg 62%
05:00 +14°C° 0 mm 1 mps 634 mmHg 61%
06:00 +14°C° 0 mm 1 mps 634 mmHg 60%
07:00 +16°C° 0 mm 2 mps 634 mmHg 53%
08:00 +18°C° 0 mm 2 mps 635 mmHg 47%
09:00 +21°C° 0 mm 2 mps 636 mmHg 40%
10:00 +22°C° 0 mm 3 mps 636 mmHg 37%
11:00 +24°C° 0 mm 3 mps 636 mmHg 34%
12:00 +25°C° 0 mm 4 mps 636 mmHg 32%
13:00 +25°C° 0 mm 5 mps 636 mmHg 35%
14:00 +23°C° 0 mm 5 mps 636 mmHg 38%
15:00 +23°C° 0 mm 6 mps 635 mmHg 41%
16:00 +21°C° 0 mm 5 mps 635 mmHg 46%
17:00 +20°C° 0 mm 4 mps 635 mmHg 51%
18:00 +19°C° 0 mm 3 mps 635 mmHg 55%
19:00 +17°C° 0 mm 3 mps 635 mmHg 60%
20:00 +16°C° 0 mm 2 mps 635 mmHg 64%
21:00 +15°C° 0 mm 2 mps 635 mmHg 68%
22:00 +14°C° 0 mm 2 mps 635 mmHg 71%
23:00 +14°C° 0 mm 2 mps 635 mmHg 74%

Day after tomorrow, 20 September, Sunday

Time Temperature Precipitation Wind Pressure Humidity
00:00 +13°C° 0 mm 2 mps 634 mmHg 77%
01:00 +13°C° 0 mm 2 mps 634 mmHg 78%
02:00 +12°C° 0 mm 1 mps 634 mmHg 79%
03:00 +12°C° 0 mm 1 mps 634 mmHg 79%
04:00 +11°C° 0 mm 1 mps 634 mmHg 79%
05:00 +11°C° 0 mm 1 mps 634 mmHg 79%
06:00 +11°C° 0 mm 1 mps 634 mmHg 79%
07:00 +13°C° 0 mm 2 mps 635 mmHg 72%
08:00 +15°C° 0 mm 2 mps 636 mmHg 65%
09:00 +17°C° 0 mm 2 mps 636 mmHg 58%
10:00 +18°C° 0 mm 2 mps 636 mmHg 54%
11:00 +20°C° 0 mm 2 mps 636 mmHg 51%
12:00 +21°C° 0 mm 2 mps 637 mmHg 47%
13:00 +21°C° 0 mm 2 mps 636 mmHg 45%
14:00 +23°C° 0 mm 2 mps 636 mmHg 43%
15:00 +23°C° 0 mm 2 mps 636 mmHg 41%
16:00 +20°C° 0 mm 3 mps 635 mmHg 51%
17:00 +18°C° 0 mm 4 mps 635 mmHg 60%
18:00 +15°C° 0 mm 4 mps 634 mmHg 69%
19:00 +14°C° 0 mm 4 mps 634 mmHg 73%
20:00 +14°C° 0 mm 3 mps 635 mmHg 76%
21:00 +13°C° 0 mm 3 mps 635 mmHg 80%
22:00 +12°C° 0 mm 3 mps 635 mmHg 80%
23:00 +12°C° 0 mm 3 mps 635 mmHg 81%

21 September, Monday

Time Temperature Precipitation Wind Pressure Humidity
00:00 +12°C° 0 mm 3 mps 635 mmHg 81%
01:00 +11°C° 0 mm 3 mps 635 mmHg 82%
02:00 +12°C° 0 mm 2 mps 634 mmHg 83%
03:00 +12°C° 0 mm 2 mps 634 mmHg 84%
04:00 +12°C° 0 mm 2 mps 634 mmHg 85%
05:00 +10°C° 0 mm 2 mps 634 mmHg 86%
06:00 +10°C° 0 mm 2 mps 635 mmHg 87%
07:00 +12°C° 0 mm 3 mps 635 mmHg 79%
08:00 +14°C° 0 mm 3 mps 636 mmHg 71%
09:00 +17°C° 0 mm 3 mps 637 mmHg 64%
10:00 +18°C° 0.1 mm 3 mps 637 mmHg 60%
11:00 +19°C° 0.1 mm 3 mps 637 mmHg 57%
12:00 +21°C° 0.1 mm 4 mps 637 mmHg 53%
13:00 +21°C° 0.1 mm 4 mps 637 mmHg 54%
14:00 +21°C° 0.1 mm 4 mps 637 mmHg 54%
15:00 +21°C° 0.1 mm 4 mps 636 mmHg 54%
16:00 +19°C° 0.1 mm 4 mps 636 mmHg 61%
17:00 +17°C° 0.1 mm 4 mps 636 mmHg 67%
18:00 +15°C° 0.1 mm 4 mps 635 mmHg 74%
19:00 +14°C° 0 mm 4 mps 635 mmHg 76%
20:00 +14°C° 0 mm 3 mps 636 mmHg 78%
21:00 +13°C° 0 mm 3 mps 636 mmHg 80%
22:00 +13°C° 0 mm 3 mps 636 mmHg 81%
23:00 +13°C° 0 mm 3 mps 635 mmHg 81%

22 September, Tuesday

Time Temperature Precipitation Wind Pressure Humidity
00:00 +12°C° 0 mm 3 mps 635 mmHg 82%
01:00 +13°C° 0 mm 2 mps 635 mmHg 83%
02:00 +13°C° 0 mm 2 mps 635 mmHg 83%
03:00 +13°C° 0 mm 2 mps 634 mmHg 84%
04:00 +12°C° 0 mm 2 mps 634 mmHg 85%
05:00 +12°C° 0 mm 1 mps 634 mmHg 86%
06:00 +12°C° 0 mm 1 mps 634 mmHg 86%
07:00 +14°C° 0 mm 1 mps 635 mmHg 78%
08:00 +16°C° 0 mm 1 mps 636 mmHg 69%
09:00 +19°C° 0 mm 1 mps 636 mmHg 60%
10:00 +21°C° 0 mm 1 mps 637 mmHg 54%
11:00 +21°C° 0 mm 2 mps 637 mmHg 47%
12:00 +24°C° 0 mm 2 mps 637 mmHg 41%
13:00 +24°C° 0.1 mm 2 mps 637 mmHg 40%
14:00 +25°C° 0.1 mm 2 mps 637 mmHg 39%
15:00 +25°C° 0.1 mm 3 mps 637 mmHg 38%
16:00 +22°C° 0.8 mm 3 mps 636 mmHg 49%
17:00 +19°C° 0.8 mm 4 mps 636 mmHg 60%
18:00 +16°C° 0.8 mm 5 mps 635 mmHg 72%
19:00 +15°C° 2 mm 4 mps 636 mmHg 74%
20:00 +15°C° 2 mm 4 mps 636 mmHg 76%
21:00 +14°C° 2 mm 4 mps 636 mmHg 79%
22:00 +14°C° 0.1 mm 3 mps 636 mmHg 81%
23:00 +13°C° 0.1 mm 3 mps 636 mmHg 83%

23 September, Wednesday

Time Temperature Precipitation Wind Pressure Humidity
00:00 +14°C° 0.1 mm 2 mps 636 mmHg 85%
01:00 +14°C° 0 mm 2 mps 636 mmHg 85%
02:00 +13°C° 0 mm 2 mps 636 mmHg 85%
03:00 +12°C° 0 mm 3 mps 636 mmHg 86%
04:00 +13°C° 0 mm 2 mps 636 mmHg 86%
05:00 +13°C° 0 mm 2 mps 636 mmHg 87%
06:00 +13°C° 0 mm 2 mps 636 mmHg 87%
07:00 +14°C° 0 mm 2 mps 636 mmHg 80%
08:00 +16°C° 0 mm 3 mps 637 mmHg 73%
09:00 +18°C° 0 mm 3 mps 638 mmHg 66%
10:00 +19°C° 0 mm 3 mps 638 mmHg 63%
11:00 +19°C° 0 mm 4 mps 638 mmHg 60%
12:00 +20°C° 0 mm 4 mps 638 mmHg 57%
13:00 +20°C° 0 mm 4 mps 638 mmHg 57%
14:00 +21°C° 0 mm 4 mps 637 mmHg 57%
15:00 +21°C° 0 mm 4 mps 637 mmHg 57%
16:00 +19°C° 0 mm 4 mps 637 mmHg 63%
17:00 +18°C° 0 mm 4 mps 636 mmHg 69%
18:00 +16°C° 0 mm 3 mps 636 mmHg 75%
19:00 +14°C° 0 mm 3 mps 636 mmHg 78%
20:00 +14°C° 0 mm 3 mps 636 mmHg 80%
21:00 +13°C° 0 mm 3 mps 636 mmHg 82%
22:00 +13°C° 0 mm 3 mps 636 mmHg 83%
23:00 +13°C° 0 mm 3 mps 636 mmHg 84%
Show more